Home   Weather   Haarlem   Past weeks

Flag for Netherlands Past Weather in Haarlem, Netherlands — Yesterday and Last 2 Weeks

Now
66 °F

Passing clouds.


Feels Like: 66 °F
Forecast: 47 / 53 °F
Wind: 21 mph from Southeast

Location: Amsterdam Schiphol Airport

Current Time: Apr 30, 2017 at 5:09:58 pm

Latest Report: Apr 30, 2017 at 4:25 pm


Visibility: N/A

Pressure: 29.71 "Hg

Humidity: 35%

Dew Point: 37 °F

Location of HaarlemLocation

Past Weather in Haarlem — Graph

°F

Haarlem Temperature Yesterday

Maximum temperature yesterday: 55 °F (at 1:55 pm)
Minimum temperature yesterday: 37 °F (at 3:25 am)
Average temperature yesterday: 47 °F

High & Low Weather Summary for the Past Weeks

 TemperatureHumidityPressure
High64 °F (Apr 30, 2:55 pm)100% (Apr 26, 3:55 am)30.63 "Hg (Apr 26, 3:55 am)
Low32 °F (Apr 20, 3:55 am)32% (Apr 30, 3:25 pm)29.68 "Hg (Apr 25, 2:25 am)
Average46 °F72%30.15 "Hg
* Reported Apr 15 3:25 pm — Apr 30 3:55 pm, Haarlem, Weather by CustomWeather, © 2017

Note: Actual official high and low records may vary slightly from our data, if they occured in-between our weather recording intervals... More about our weather records

Advertising

Haarlem Weather History for the Previous 24 Hours

Scroll right to see more
 ConditionsComfort  
Time TempWeatherWind HumidityBarometerVisibility
3:55 pm
Sun, Apr 30
64 °FPassing clouds.22 mph32%29.71 "HgN/A
3:25 pm64 °FPassing clouds.23 mph32%29.74 "HgN/A
2:55 pm64 °FPassing clouds.24 mph34%29.74 "HgN/A
2:25 pm63 °FSunny.21 mph37%29.77 "Hg10 mi
1:55 pm63 °FPassing clouds.21 mph37%29.77 "HgN/A
1:25 pm63 °FPassing clouds.23 mph39%29.77 "HgN/A
12:55 pm63 °FPassing clouds.21 mph39%29.80 "HgN/A
12:25 pm61 °FPassing clouds.18 mph39%29.80 "HgN/A
11:55 am59 °FPassing clouds.17 mph45%29.83 "HgN/A
11:25 am57 °FPassing clouds.16 mph48%29.83 "HgN/A
10:55 am57 °FPassing clouds.15 mph48%29.86 "HgN/A
10:25 am54 °FSunny.14 mph51%29.86 "Hg10 mi
9:55 am52 °FPassing clouds.14 mph54%29.86 "HgN/A
9:25 am50 °FPassing clouds.16 mph54%29.89 "HgN/A
8:55 am48 °FSunny.17 mph58%29.89 "Hg10 mi
8:25 am46 °FPassing clouds.16 mph57%29.92 "HgN/A
7:55 am45 °FPassing clouds.14 mph61%29.92 "HgN/A
7:25 am43 °FPassing clouds.13 mph66%29.92 "HgN/A
6:55 am43 °FSunny.14 mph66%29.92 "Hg10 mi
6:25 am41 °FSunny.13 mph70%29.95 "Hg10 mi
5:55 am43 °FClear.13 mph66%29.95 "Hg10 mi
5:25 am43 °FClear.12 mph66%29.95 "Hg10 mi
4:55 am43 °FClear.10 mph66%29.95 "Hg10 mi
4:25 am43 °FClear.12 mph66%29.98 "Hg10 mi
3:55 am43 °FClear.10 mph66%29.98 "Hg10 mi
3:25 am43 °FPassing clouds.10 mph71%29.98 "HgN/A
2:55 am43 °FClear.9 mph71%29.98 "Hg10 mi
2:25 am43 °FClear.9 mph76%29.98 "Hg10 mi
1:55 am43 °FClear.8 mph76%29.98 "Hg10 mi
1:25 am43 °FClear.8 mph76%29.98 "Hg10 mi
12:55 am41 °FClear.8 mph81%30.01 "Hg10 mi
12:25 am41 °FClear.8 mph76%30.01 "Hg10 mi
11:55 pm
Sat, Apr 29
43 °FClear.7 mph76%30.01 "Hg10 mi
11:25 pm41 °FClear.7 mph81%30.01 "Hg10 mi
10:55 pm43 °FClear.7 mph76%30.01 "Hg10 mi
10:25 pm43 °FClear.6 mph76%30.01 "Hg10 mi
9:25 pm46 °FClear.10 mph71%30.01 "Hg10 mi
8:55 pm46 °FSunny.9 mph76%30.01 "Hg10 mi
7:55 pm50 °FSunny.8 mph67%30.01 "Hg10 mi
7:25 pm52 °FPassing clouds.8 mph62%30.04 "HgN/A
6:55 pm52 °FPassing clouds.7 mph62%30.04 "HgN/A
6:25 pm54 °FPassing clouds.8 mph58%30.04 "HgN/A
5:55 pm54 °FPassing clouds.3 mph54%30.04 "HgN/A
5:25 pm54 °FPassing clouds.5 mph54%30.04 "HgN/A
Weather by CustomWeather, © 2017

See weather overviewHow to use our weather pages